[[{"header":{"parameterUnit":"m.s-1","parameterCategory":1,"la1":30.2991,"la2":30.254,"lo1":-89.0895,"lo2":-89.0444,"dy":0.0017,"dx":0.0017,"nx":28,"ny":28,"refTime":"2024-07-20T21:00:00:Z","depth":0,"parameterNumber":2,"parameterNumberName":"U-component_of_WINDS"},"data":[0,0,0,0,0,0,0,0,0,0,0,0,0,0,0,0,0,0,0,0,0,0,0,0,0,0,0,0,0,0,0,0,0,0,0,0,0,0,0,0,0,0,0,0,0,0,0,0,0,0,0,0,0,0,0,0,0,0,1.5118,1.5119,0,1.5206,1.5207,1.5208,1.5254,1.5254,1.5254,1.5254,1.5351,1.5353,1.5355,0,0,0,0,0,0,0,0,0,0,0,0,0,1.4997,1.4999,1.5118,1.5119,1.512,1.5206,1.5207,1.5208,1.5254,1.5254,1.5254,1.5254,1.535,1.5353,1.5356,0,0,0,0,0,0,0,0,0,0,0,0,0,1.5064,1.5,1.5118,1.5153,1.5157,1.5205,1.5207,1.5208,1.5254,1.5254,1.5254,1.5254,1.5349,1.5352,1.5356,1.5378,0,0,1.5368,1.5369,0,0,0,0,0,0,0,0,1.506,1.5068,1.5147,1.5151,1.5156,1.5219,1.52,1.5265,1.5254,1.5218,1.5254,1.5254,1.5307,1.5314,1.5331,1.5382,1.5386,1.5368,1.537,1.5372,1.5373,0,0,0,0,0,0,0,1.5056,1.5065,1.5153,1.5148,1.5153,1.5167,1.5177,1.5212,1.5261,1.5221,1.5224,1.5234,1.531,1.5327,1.5333,1.5388,1.5368,1.5371,1.5374,1.5375,1.5464,1.5464,0,0,0,0,0,0,1.5044,1.5061,1.515,1.5156,1.5107,1.5169,1.518,1.5199,1.5261,1.527,1.5233,1.5235,1.5321,1.5329,1.5337,1.5367,1.5372,1.5375,1.5378,1.5463,1.5464,1.5464,0,0,0,0,0,0,1.5041,1.5052,1.5147,1.5109,1.5122,1.5171,1.5192,1.52,1.5218,1.527,1.528,1.5242,1.5321,1.5332,1.5367,1.5371,1.5377,1.5381,1.5463,1.5463,1.5464,1.5427,0,0,0,0,0,0,1.5038,1.505,1.5057,1.5109,1.5124,1.5173,1.5192,1.5202,1.5223,1.5227,1.5281,1.529,1.5322,1.5361,1.5371,1.5376,1.5383,1.5463,1.5463,1.5464,1.5428,1.5426,1.5424,0,0,0,0,0,1.5033,1.5045,1.5057,1.5068,1.5133,1.5173,1.5182,1.5217,1.5223,1.5232,1.5266,1.5288,1.5369,1.5365,1.5376,1.5383,1.5463,1.5463,1.5464,1.5429,1.5426,1.5424,0,0,0,0,0,0,1.4994,1.5052,1.5067,1.5095,1.5128,1.5181,1.5192,1.5213,1.5247,1.5249,1.5293,1.5305,1.5336,1.5363,1.5357,1.5408,1.5419,1.5421,1.5389,1.5386,1.5384,1.5377,1.5387,0,0,0,0,0,1.4988,1.5014,1.5064,1.5084,1.51,1.5143,1.5162,1.5185,1.5223,1.5238,1.5275,1.5312,1.5347,1.5368,1.5402,1.5433,1.5446,1.5443,1.5441,1.5439,1.5441,1.546,1.546,1.5464,1.5464,1.5464,0,0,1.4978,1.5012,1.5026,1.5077,1.5106,1.5133,1.5155,1.5183,1.5204,1.5243,1.5278,1.5307,1.5352,1.5385,1.5401,1.5408,1.5443,1.5439,1.5437,1.544,1.546,1.546,1.5459,1.5464,1.5464,1.5464,0,0,1.4971,1.4999,1.5019,1.5048,1.5091,1.512,1.5124,1.5174,1.5194,1.5229,1.526,1.5287,1.5345,1.5376,1.5399,1.5406,1.5429,1.5417,1.5406,1.5424,1.5424,1.5424,1.5427,1.5428,1.5418,1.5418,1.5418,0,1.4953,1.4993,1.5028,1.5054,1.5076,1.5111,1.5133,1.516,1.5213,1.5228,1.5235,1.5308,1.5341,1.5383,1.5384,1.5402,1.5411,1.541,1.5421,1.5421,1.5422,1.5426,1.5427,1.5416,1.5417,1.5417,1.5417,0,1.4969,1.4996,1.5008,1.5055,1.5079,1.5103,1.5144,1.5165,1.5187,1.5216,1.5253,1.5294,1.5337,1.5349,1.5372,1.5395,1.5398,1.5412,1.5424,1.5419,1.5423,1.5425,1.5414,1.5414,1.5415,1.5415,0,0,1.4939,1.5006,1.501,1.5033,1.5083,1.5107,1.5133,1.5174,1.5191,1.5227,1.5252,1.53,1.5314,1.5341,1.5368,1.5384,1.5388,1.5397,1.5398,1.5394,1.5417,1.5406,1.5407,1.5403,1.5404,1.5404,1.5414,0,1.4941,1.4987,1.502,1.5055,1.5082,1.5117,1.514,1.5175,1.5204,1.5233,1.5265,1.5299,1.5314,1.533,1.5348,1.5383,1.5393,1.5383,1.5429,1.543,1.5416,1.5409,1.5397,1.5404,1.5416,1.5416,1.5416,0,1.4948,1.498,1.5017,1.5066,1.5079,1.5099,1.514,1.5166,1.5208,1.5228,1.5257,1.5285,1.5317,1.5326,1.5373,1.5365,1.5386,1.5407,1.5408,1.5414,1.5422,1.5415,1.5407,1.5408,1.5419,1.5419,1.5419,0,1.4923,1.4977,1.5006,1.5025,1.5082,1.5096,1.5121,1.5162,1.5185,1.5221,1.5237,1.5278,1.53,1.5332,1.5371,1.5374,1.5414,1.5426,1.5433,1.5432,1.544,1.5439,1.5436,1.5453,1.5453,1.5453,1.5453,0,1.4921,1.4943,1.4996,1.5014,1.504,1.5079,1.5105,1.5133,1.517,1.5196,1.5229,1.5254,1.5303,1.5334,1.5365,1.54,1.541,1.5428,1.5436,1.5425,1.5423,1.544,1.544,1.5453,1.5453,1.5453,1.5453,0,1.4898,1.4934,1.4968,1.502,1.5033,1.505,1.5096,1.5116,1.5146,1.5179,1.5189,1.5238,1.5276,1.5318,1.5371,1.5392,1.5425,1.5437,1.541,1.5415,1.542,1.5419,1.5427,1.5431,1.5445,1.5445,1.5445,0,1.4894,1.4911,1.4964,1.4983,1.5006,1.5036,1.5059,1.51,1.5123,1.5172,1.5187,1.5227,1.5262,1.5323,1.5364,1.5406,1.5418,1.5419,1.5425,1.5414,1.5419,1.5418,1.542,1.5416,1.5416,1.5416,1.5416,0,1.4884,1.4901,1.4931,1.4969,1.4995,1.5027,1.5061,1.5075,1.5122,1.5147,1.5186,1.5213,1.5266,1.5307,1.5354,1.5383,1.5408,1.5413,1.5417,1.5406,1.539,1.54,1.5405,1.5413,1.5413,1.5413,1.5413,1.5414,1.487,1.4888,1.4927,1.4961,1.499,1.5021,1.5043,1.5075,1.5107,1.5153,1.5176,1.5215,1.5258,1.5323,1.5351,1.5384,1.5392,1.5397,1.5399,1.54,1.5397,1.5385,1.5393,1.5393,1.5393,1.5393,1.5394,0,1.4862,1.4889,1.492,1.4965,1.4992,1.5011,1.505,1.5072,1.5105,1.5142,1.5175,1.5221,1.5261,1.5306,1.535,1.5367,1.538,1.5378,1.5377,1.5383,1.5387,1.538,1.5367,1.5367,1.5367,1.5367,1.5367,1.5367,1.4861,1.4891,1.4913,1.4959,1.4988,1.5024,1.5045,1.5074,1.5104,1.5153,1.5185,1.5214,1.5255,1.5302,1.5341,1.5353,1.5368,1.5362,1.5378,1.5381,1.5383,1.5385,1.5378,1.5365,1.5365,1.5372,1.5372,1.5372]},{"header":{"parameterUnit":"m.s-1","parameterCategory":1,"la1":30.2991,"la2":30.254,"lo1":-89.0895,"lo2":-89.0444,"dy":0.0017,"dx":0.0017,"nx":28,"ny":28,"refTime":"2024-07-20T21:00:00:Z","depth":0,"parameterNumber":3,"parameterNumberName":"V-component_of_WINDS"},"data":[0,0,0,0,0,0,0,0,0,0,0,0,0,0,0,0,0,0,0,0,0,0,0,0,0,0,0,0,0,0,0,0,0,0,0,0,0,0,0,0,0,0,0,0,0,0,0,0,0,0,0,0,0,0,0,0,0,0,2.1315,2.1315,0,2.1317,2.1317,2.1317,2.1327,2.1328,2.1328,2.1328,2.133,2.133,2.1329,0,0,0,0,0,0,0,0,0,0,0,0,0,2.1317,2.1317,2.1315,2.1315,2.1315,2.1317,2.1317,2.1317,2.1327,2.1328,2.1328,2.1328,2.133,2.133,2.1329,0,0,0,0,0,0,0,0,0,0,0,0,0,2.1318,2.1317,2.1315,2.132,2.132,2.1317,2.1317,2.1317,2.1327,2.1328,2.1328,2.1328,2.133,2.133,2.1329,2.1321,0,0,2.1329,2.1328,0,0,0,0,0,0,0,0,2.1318,2.1318,2.1319,2.132,2.132,2.1322,2.1319,2.1318,2.1327,2.1325,2.1328,2.1328,2.1327,2.1327,2.1327,2.1321,2.1321,2.1329,2.1328,2.1328,2.1328,0,0,0,0,0,0,0,2.1318,2.1317,2.1316,2.1319,2.132,2.1322,2.1322,2.1319,2.1324,2.1325,2.1326,2.1326,2.1327,2.1327,2.1327,2.1321,2.1329,2.1328,2.1328,2.1328,2.1308,2.1308,0,0,0,0,0,0,2.1317,2.1317,2.1316,2.1316,2.132,2.1322,2.1322,2.1321,2.1324,2.1325,2.1326,2.1326,2.1327,2.1327,2.1327,2.1317,2.1328,2.1328,2.1328,2.1309,2.1308,2.1308,0,0,0,0,0,0,2.1317,2.1317,2.1315,2.1317,2.1317,2.1321,2.132,2.1321,2.1321,2.1324,2.1325,2.1324,2.1327,2.1327,2.1322,2.1317,2.1328,2.1328,2.1309,2.1309,2.1308,2.1297,0,0,0,0,0,0,2.1317,2.1317,2.1314,2.1317,2.1317,2.1311,2.132,2.1321,2.132,2.1321,2.1323,2.1324,2.1328,2.1323,2.1322,2.1317,2.1328,2.131,2.1309,2.1308,2.1298,2.1297,2.1295,0,0,0,0,0,2.1317,2.131,2.1313,2.1313,2.1313,2.1311,2.1311,2.1315,2.132,2.1317,2.1319,2.1324,2.1318,2.1322,2.1321,2.1316,2.131,2.1309,2.1308,2.1299,2.1297,2.1295,0,0,0,0,0,0,2.1306,2.1311,2.1314,2.1308,2.1309,2.1312,2.1309,2.1313,2.1312,2.1313,2.1319,2.1319,2.1313,2.1314,2.1319,2.1308,2.1315,2.1314,2.1308,2.1306,2.1304,2.1304,2.1327,0,0,0,0,0,2.1303,2.1301,2.1305,2.1299,2.13,2.1304,2.1303,2.1307,2.1308,2.1308,2.131,2.131,2.1309,2.1307,2.1306,2.1298,2.1299,2.1295,2.1293,2.1292,2.1291,2.1287,2.1285,2.1305,2.1305,2.1305,0,0,2.1297,2.1299,2.1297,2.1297,2.1298,2.1296,2.1304,2.1301,2.13,2.1307,2.1303,2.1304,2.1305,2.1299,2.1296,2.13,2.1285,2.1291,2.129,2.1289,2.1286,2.1284,2.1282,2.1305,2.1305,2.1305,0,0,2.1284,2.1285,2.1281,2.1282,2.1283,2.1286,2.1285,2.1288,2.1289,2.1285,2.1291,2.1289,2.1286,2.1286,2.1286,2.1273,2.1278,2.1272,2.1264,2.1261,2.1259,2.1258,2.1253,2.1252,2.1272,2.1272,2.1272,0,2.1276,2.1273,2.1278,2.1275,2.1275,2.1282,2.1277,2.1278,2.1279,2.1278,2.1282,2.1278,2.1279,2.1273,2.127,2.127,2.1269,2.1272,2.1259,2.1258,2.1256,2.1252,2.1251,2.1271,2.1271,2.1271,2.1271,0,2.1262,2.126,2.1256,2.1257,2.1257,2.1253,2.1257,2.1256,2.126,2.1262,2.1258,2.1259,2.1258,2.1257,2.126,2.1252,2.1254,2.1258,2.1265,2.1254,2.125,2.1249,2.127,2.127,2.127,2.1271,0,0,2.1243,2.1247,2.1245,2.1246,2.1248,2.1247,2.1243,2.1243,2.1241,2.1242,2.1239,2.1236,2.124,2.124,2.1243,2.124,2.123,2.1245,2.1245,2.1242,2.1221,2.1217,2.1215,2.1233,2.1233,2.1232,2.1221,0,2.1231,2.1225,2.123,2.1223,2.1221,2.1228,2.1225,2.1226,2.1228,2.1227,2.1229,2.1227,2.1233,2.1232,2.123,2.1232,2.1226,2.1233,2.123,2.123,2.123,2.1213,2.121,2.1199,2.1219,2.1219,2.1219,0,2.1216,2.1216,2.1209,2.1212,2.1212,2.1209,2.1209,2.1207,2.1208,2.121,2.121,2.1214,2.1211,2.1217,2.1212,2.1217,2.1216,2.1217,2.1216,2.1217,2.1224,2.1213,2.1195,2.1194,2.1216,2.1217,2.1217,0,2.1202,2.1201,2.1197,2.1197,2.12,2.1198,2.1199,2.1201,2.12,2.12,2.12,2.1199,2.1198,2.1198,2.1201,2.1206,2.1196,2.1203,2.1197,2.1197,2.1195,2.1195,2.1177,2.1194,2.1194,2.1194,2.1194,0,2.1188,2.1184,2.1191,2.1188,2.1183,2.1189,2.1184,2.1186,2.1187,2.1185,2.1191,2.1188,2.1194,2.1192,2.1195,2.119,2.119,2.1191,2.1192,2.1191,2.1191,2.1191,2.1191,2.1194,2.1194,2.1194,2.1194,0,2.1173,2.1177,2.1173,2.1176,2.1177,2.1174,2.1176,2.1174,2.1177,2.1174,2.1174,2.1178,2.1176,2.118,2.1178,2.118,2.1174,2.1176,2.1174,2.1174,2.1169,2.1169,2.115,2.1148,2.1166,2.1166,2.1166,0,2.1163,2.116,2.1164,2.1163,2.1164,2.1162,2.1162,2.1167,2.1166,2.1167,2.1165,2.1164,2.1163,2.116,2.1162,2.1161,2.1163,2.1157,2.1163,2.1162,2.1164,2.1164,2.1164,2.1155,2.1155,2.1155,2.1155,0,2.1147,2.1149,2.1149,2.1149,2.1148,2.1148,2.1149,2.1148,2.1153,2.1152,2.115,2.115,2.1149,2.1147,2.1147,2.1148,2.1152,2.1153,2.1152,2.115,2.1149,2.115,2.117,2.1153,2.1153,2.1154,2.1154,2.1154,2.1134,2.1132,2.1134,2.1133,2.1134,2.1135,2.1133,2.1135,2.1134,2.1134,2.1137,2.1135,2.1136,2.1136,2.1137,2.1135,2.1138,2.1136,2.1135,2.1135,2.1134,2.1149,2.1135,2.1135,2.1135,2.1135,2.1135,0,2.1118,2.112,2.1119,2.112,2.1119,2.1124,2.1125,2.1124,2.1122,2.1123,2.1122,2.112,2.1119,2.1122,2.1121,2.1119,2.1121,2.1119,2.1119,2.1119,2.1131,2.1133,2.1117,2.1117,2.1117,2.1117,2.1117,2.1117,2.111,2.1106,2.1109,2.1106,2.1108,2.1106,2.1106,2.1106,2.1107,2.1105,2.1104,2.1106,2.1108,2.1107,2.1106,2.1107,2.1107,2.1104,2.1105,2.1116,2.1118,2.112,2.1121,2.1103,2.1103,2.1093,2.1093,2.1093]}]]